OH2TI Weather Reports


time (UTC)temp
F
wind
direction
speed
knots
gust
knots
rain 1hr
in
rain 24hr
in
rain mn
in
humidity
%
barometer
mb
20260506170709 49 218 3.5 7.0 0.00 0.00 0.00 45 1010.5
20260506165619 49 232 2.6 5.2 0.00 0.00 0.00 46 1010.4
20260506164629 49 215 4.3 7.0 0.00 0.00 0.00 45 1010.4
20260506163929 49 197 4.3 9.6 0.00 0.00 0.00 47 1010.4
20260506162522 49 202 2.6 6.1 0.00 0.00 0.00 48 1010.3
20260506161449 49 232 2.6 5.2 0.00 0.00 0.00 48 1010.4
20260506160904 49 209 3.5 7.8 0.00 0.00 0.00 47 1010.4
20260506160232 49 205 7.8 10.4 0.00 0.00 0.00 45 1010.3
20260506155442 50 198 3.5 7.8 0.00 0.00 0.00 44 1010.3
20260506154744 50 228 4.3 7.8 0.00 0.00 0.00 43 1010.4
20260506154154 50 237 3.5 9.6 0.00 0.00 0.00 42 1010.4
20260506153534 50 212 4.3 8.7 0.00 0.00 0.00 43 1010.4
20260506152139 48 190 5.2 10.4 0.00 0.00 0.00 49 1010.3
20260506151306 48 212 5.2 7.8 0.00 0.00 0.00 50 1010.4
20260506150602 48 198 5.2 10.4 0.00 0.00 0.00 50 1010.3
20260506145305 48 206 6.1 10.4 0.00 0.00 0.00 49 1010.6
20260506144519 48 200 7.0 12.2 0.00 0.00 0.00 49 1010.6
20260506143119 49 214 6.1 9.6 0.00 0.00 0.00 46 1010.6
20260506142239 49 213 5.2 7.8 0.00 0.00 0.00 44 1010.6
20260506140759 50 206 6.1 13.0 0.00 0.00 0.00 43 1010.4
20260506135804 50 203 6.1 10.4 0.00 0.00 0.00 39 1010.5
20260506134944 50 240 4.3 9.6 0.00 0.00 0.00 39 1010.5
20260506134219 50 213 6.1 13.0 0.00 0.00 0.00 40 1010.5
20260506133329 51 231 5.2 10.4 0.00 0.00 0.00 41 1010.6
20260506132734 50 198 6.1 13.0 0.00 0.00 0.00 42 1010.5
20260506132221 50 198 6.1 11.3 0.00 0.00 0.00 41 1010.4
20260506131019 50 203 7.8 16.5 0.00 0.00 0.00 40 1010.3
20260506125802 50 207 6.1 12.2 0.00 0.00 0.00 41 1010.3
20260506124654 49 197 8.7 15.6 0.00 0.00 0.00 45 1010.4
20260506123619 49 193 7.0 15.6 0.00 0.00 0.00 47 1010.4
20260506123042 50 190 5.2 14.8 0.00 0.00 0.00 47 1010.3
20260506121642 49 196 7.8 14.8 0.00 0.00 0.00 49 1010.4
20260506120659 48 198 5.2 11.3 0.00 0.00 0.00 54 1010.3
20260506115232 46 212 6.1 12.2 0.00 0.00 0.00 59 1010.2
20260506114412 46 210 7.0 13.9 0.00 0.00 0.00 59 1010.4
20260506113539 46 215 6.1 13.9 0.00 0.00 0.00 59 1010.3
20260506112542 46 195 5.2 9.6 0.00 0.00 0.00 60 1010.3
20260506111536 46 198 6.1 13.0 0.00 0.00 0.00 59 1010.2
20260506110409 47 193 4.3 11.3 0.00 0.00 0.00 57 1010.3
20260506104951 48 200 6.1 11.3 0.00 0.00 0.00 53 1010.3
20260506103959 48 192 5.2 13.0 0.00 0.00 0.00 55 1010.2
20260506103349 48 199 3.5 9.6 0.00 0.00 0.00 55 1010.1
20260506102644 49 191 2.6 7.0 0.00 0.00 0.00 52 1010.2
20260506101219 49 123 1.7 3.5 0.00 0.00 0.00 47 1010.3
20260506100429 50 288 2.6 5.2 0.00 0.00 0.00 31 1010.2
20260506095036 49 332 4.3 8.7 0.00 0.00 0.00 34 1010.0
20260506094532 49 342 7.0 11.3 0.00 0.00 0.00 34 1010.0
20260506093342 50 327 5.2 8.7 0.00 0.00 0.00 33 1010.0
20260506092349 49 301 2.6 5.2 0.00 0.00 0.00 35 1009.9
20260506091124 49 318 6.1 10.4 0.00 0.00 0.00 35 1009.7
20260506085636 48 316 7.0 13.9 0.00 0.00 0.00 35 1009.7
20260506084206 49 324 2.6 7.0 0.00 0.00 0.00 35 1009.7
20260506083236 47 304 3.5 7.8 0.00 0.00 0.00 37 1009.7
20260506081749 48 328 5.2 8.7 0.00 0.00 0.00 39 1009.6
20260506080449 48 351 5.2 10.4 0.00 0.00 0.00 39 1009.6
20260506073224 48 265 3.5 7.0 0.00 0.00 0.00 42 1009.4
20260506072312 48 315 5.2 8.7 0.00 0.00 0.00 43 1009.3
20260506070954 46 313 4.3 8.7 0.00 0.00 0.00 46 1009.2
20260506061919 45 291 2.6 4.3 0.00 0.00 0.00 54 1009.0
20260506060519 44 283 3.5 7.0 0.00 0.00 0.00 56 1008.8
20260506051134 41 315 5.2 8.7 0.00 0.00 0.00 65 1008.2
20260506044236 40 300 2.6 6.1 0.00 0.00 0.00 70 1007.8
20260506043319 39 309 4.3 8.7 0.00 0.00 0.00 70 1007.8
20260506041934 39 313 2.6 5.2 0.00 0.00 0.00 72 1007.7
20260506040604 38 313 1.7 6.1 0.00 0.00 0.00 73 1007.5
20260506040021 38 299 2.6 5.2 0.00 0.00 0.00 74 1007.5
20260506034702 37 298 2.6 4.3 0.00 0.00 0.00 76 1007.3
20260506033332 36 304 2.6 5.2 0.00 0.00 0.00 77 1007.2
20260506032449 36 271 1.7 4.3 0.00 0.00 0.00 77 1007.1
20260506031302 36 312 1.7 4.3 0.00 0.00 0.00 77 1007.0
20260506030032 35 274 1.7 3.5 0.00 0.00 0.00 78 1006.9
20260506025219 35 265 2.6 5.2 0.00 0.00 0.00 78 1006.8
20260506023842 34 266 2.6 5.2 0.00 0.00 0.00 79 1006.6
20260506023044 34 284 0.9 2.6 0.00 0.00 0.00 80 1006.6
20260506022344 34 276 0.9 2.6 0.00 0.00 0.00 80 1006.5
20260506021509 34 256 1.7 2.6 0.00 0.00 0.00 80 1006.5
20260506020936 34 268 0.9 1.7 0.00 0.00 0.00 80 1006.4
20260506015734 34 267 0.9 1.7 0.00 0.00 0.00 79 1006.2
20260506014729 34 295 0.9 2.6 0.00 0.00 0.00 79 1006.2
20260506013939 35 311 1.7 3.5 0.00 0.00 0.00 79 1006.2
20260506013224 35 307 2.6 5.2 0.00 0.00 0.00 79 1006.1
20260506012229 35 302 0.9 3.5 0.00 0.00 0.00 79 1006.1
20260506010906 35 280 0.9 1.7 0.00 0.00 0.00 78 1006.0
20260506010019 35 281 0.9 1.7 0.00 0.00 0.00 77 1006.0
20260506004549 35 280 1.7 3.5 0.00 0.00 0.00 77 1005.8
20260506003919 35 277 1.7 2.6 0.00 0.00 0.00 76 1005.7
20260506003149 35 305 1.7 4.3 0.00 0.00 0.00 76 1005.7
20260506002212 36 312 1.7 3.5 0.00 0.00 0.00 76 1005.6
20260506000739 36 304 2.6 5.2 0.00 0.00 0.00 75 1005.6
20260506000106 36 286 1.7 3.5 0.00 0.00 0.00 75 1005.6
20260505235519 36 292 1.7 3.5 0.00 0.00 0.00 75 1005.5
20260505234402 36 274 1.7 4.3 0.00 0.00 0.00 74 1005.5
20260505233809 37 285 1.7 5.2 0.00 0.00 0.00 74 1005.5
20260505232619 37 268 2.6 4.3 0.00 0.00 0.00 73 1005.4
20260505231659 37 266 2.6 4.3 0.00 0.00 0.00 72 1005.3
20260505231134 37 309 2.6 4.3 0.00 0.00 0.00 72 1005.3
20260505230359 37 284 2.6 5.2 0.00 0.00 0.00 72 1005.2
20260505225829 37 274 2.6 4.3 0.00 0.00 0.00 72 1005.2
20260505224332 38 297 1.7 4.3 0.00 0.00 0.00 71 1005.0
20260505222949 38 294 2.6 5.2 0.00 0.00 0.00 70 1004.9
20260505222122 38 305 2.6 5.2 0.00 0.00 0.00 70 1004.9
20260505220821 38 284 2.6 6.1 0.00 0.00 0.00 69 1004.8
20260505215502 39 287 2.6 8.7 0.00 0.00 0.00 68 1004.8
20260505214249 39 279 2.6 6.1 0.00 0.00 0.00 66 1004.8
20260505212814 39 255 3.5 7.0 0.00 0.00 0.00 65 1004.6
20260505212032 40 268 2.6 6.1 0.00 0.00 0.00 64 1004.5
20260505211421 40 271 2.6 7.0 0.00 0.00 0.00 63 1004.5
20260505210829 40 274 2.6 5.2 0.00 0.00 0.00 63 1004.5
20260505205912 40 264 2.6 5.2 0.00 0.00 0.00 62 1004.4
20260505204712 40 275 2.6 6.1 0.00 0.00 0.00 61 1004.3
20260505203914 41 285 1.7 4.3 0.00 0.00 0.00 61 1004.1
20260505202622 41 285 3.5 5.2 0.00 0.00 0.00 59 1003.9
20260505201449 41 275 1.7 4.3 0.00 0.00 0.00 59 1003.9
20260505200551 42 293 1.7 5.2 0.00 0.00 0.00 58 1003.8
20260505195129 42 290 2.6 7.0 0.00 0.00 0.00 55 1003.7
20260505193949 42 277 4.3 9.6 0.00 0.00 0.00 53 1003.6
20260505192959 43 273 3.5 7.0 0.00 0.00 0.00 51 1003.6
20260505191842 43 270 3.5 8.7 0.00 0.00 0.00 48 1003.5
20260505190912 44 268 2.6 7.0 0.00 0.00 0.00 47 1003.4
20260505190004 44 275 3.5 7.0 0.00 0.00 0.00 46 1003.3
20260505185305 44 269 3.5 7.8 0.00 0.00 0.00 45 1003.3
20260505184714 44 277 3.5 7.0 0.00 0.00 0.00 45 1003.2
20260505184129 45 284 4.3 8.7 0.00 0.00 0.00 44 1003.2
20260505183249 45 263 5.2 10.4 0.00 0.00 0.00 43 1003.0
20260505182214 45 274 3.5 10.4 0.00 0.00 0.00 43 1002.9
20260505181109 46 263 1.7 4.3 0.00 0.00 0.00 43 1002.8
20260505175919 46 296 3.5 10.4 0.00 0.00 0.00 41 1002.7
20260505175319 47 261 4.3 12.2 0.00 0.00 0.00 41 1002.7
20260505174404 47 294 5.2 9.6 0.00 0.00 0.00 41 1002.6
20260505173222 47 271 3.5 6.1 0.00 0.00 0.00 41 1002.5
20260505172306 48 258 2.6 10.4 0.00 0.00 0.00 40 1002.5